This is the latest recevied weather packets stored in our database for station/object KQ4JKJ. If no packets are shown the sender has not sent any weather packets the latest 10 day(s).
| Time | Temp. | Humidity | Pressure | Rain* | Wind** | Luminosity | Snow |
|---|---|---|---|---|---|---|---|
| 1777895093 | 21.11° C | 79% | 1010.3 hPa | 0 mm | - | 43 W/m² | - |
| 1777894790 | 21.67° C | 79% | 1010.2 hPa | 0 mm | - | 38 W/m² | - |
| 1777894486 | 21.67° C | 77% | 1010.2 hPa | 0 mm | - | 37 W/m² | - |
| 1777894184 | 22.22° C | 77% | 1010.3 hPa | 0 mm | - | 34 W/m² | - |
| 1777893881 | 22.22° C | 78% | 1010.3 hPa | 0 mm | - | 33 W/m² | - |
| 1777893577 | 22.22° C | 77% | 1010 hPa | 0 mm | - | 30 W/m² | - |
| 1777893273 | 21.67° C | 77% | 1010.1 hPa | 0 mm | - | 26 W/m² | - |
| 1777892970 | 21.67° C | 79% | 1010 hPa | 0 mm | - | 22 W/m² | - |
| 1777892667 | 21.11° C | 80% | 1010.1 hPa | 0 mm | - | 18 W/m² | - |
| 1777892362 | 20.56° C | 82% | 1009.7 hPa | 0 mm | - | 14 W/m² | - |
| 1777892059 | 20.56° C | 82% | 1009.8 hPa | 0 mm | - | 11 W/m² | - |
| 1777891757 | 20.56° C | 82% | 1009.8 hPa | 0 mm | - | 7 W/m² | - |
| 1777891453 | 20.56° C | 81% | 1009.9 hPa | 0 mm | - | 5 W/m² | - |
| 1777891149 | 21.11° C | 81% | 1009.7 hPa | 0 mm | - | 2 W/m² | - |
| 1777890849 | 21.11° C | 81% | 1009.8 hPa | 0 mm | - | 1 W/m² | - |
| 1777890544 | 21.11° C | 80% | 1009.8 hPa | 0 mm | - | 0 W/m² | - |
| 1777890240 | 21.11° C | 80% | 1009.9 hPa | 0 mm | - | 0 W/m² | - |
| 1777889937 | 21.11° C | 81% | 1009.7 hPa | 0 mm | - | 0 W/m² | - |
| 1777889635 | 21.67° C | 80% | 1009.7 hPa | 0 mm | - | 0 W/m² | - |
| 1777889332 | 21.67° C | 80% | 1009.7 hPa | 0 mm | - | 0 W/m² | - |
| 1777889029 | 22.22° C | 78% | 1009.7 hPa | 0 mm | - | 0 W/m² | - |
| 1777888727 | 21.67° C | 78% | 1009.6 hPa | 0 mm | - | 0 W/m² | - |
| 1777888422 | 21.67° C | 79% | 1009.4 hPa | 0 mm | - | 0 W/m² | - |
| 1777888118 | 21.67° C | 79% | 1009.7 hPa | 0 mm | - | 0 W/m² | - |
| 1777887816 | 21.67° C | 78% | 1009.5 hPa | 0 mm | - | 0 W/m² | - |
* Rain latest hour (hover to see other rain measurements)
** Current wind speed in m/s (hover to see current wind gust speed)